Regional Weather Roundup
Issued by NWS Glasgow, MT

Home | Current Version | Previous Version | Text Only | Print | Product List | Glossary On
Versions: 1 2 3 4 5 6 7 8 9 10 11 12 13 14 15 16 17 18 19 20 21 22 23 24 25 26 27
000
ASUS45 KGGW 311515
RWRGGW
HOURLY WEATHER ROUNDUP FOR NORTHEAST MONTANA
NATIONAL WEATHER SERVICE GLASGOW MONTANA
900 AM MDT FRI OCT 31 2014

NOTE: "FAIR" INDICATES FEW OR NO CLOUDS BELOW 12,000 FEET WITH NO
SIGNIFICANT WEATHER AND/OR OBSTRUCTIONS TO VISISBILITY.

NORTHEAST MONTANA


CITY           SKY/WX    TMP DP  RH WIND       PRES   REMARKS
GLASGOW        CLEAR     34  29  82 SE25      30.04F
PLENTYWOOD       N/A     31  28  89 SE21        N/A
WOLF POINT     MOSUNNY   36  30  79 E12       30.15F
JORDAN           N/A     35  31  85 SE16      30.02F
WINNETT          N/A     36  32  85 E5          N/A
SIDNEY         CLOUDY    34  28  80 SE18G24   30.25F
GLENDIVE       MOSUNNY   34  28  80 S12       30.19F
MALTA            N/A     34  32  92 E5          N/A
SCOBEY           N/A     32  25  76 SE21G30   30.08

FORT PECK REPORTS


CITY           SKY/WX    TMP DP  RH WIND       PRES   REMARKS
FORT PECK        N/A     37  32  82 E23         N/A
THE PINES        N/A     37  32  82 SE9         N/A

SOUTHEAST MONTANA


CITY           SKY/WX    TMP DP  RH WIND       PRES   REMARKS
BILLINGS       CLOUDY    37  31  78 SW5       30.00S
MILES CITY     SUNNY     35  30  82 SE21G30   30.09F
BAKER          CLOUDY    32  29  88 SE28G41   30.20F
LIVINGSTON     PTCLDY    32  26  78 CALM      29.98F

CENTRAL MONTANA


CITY           SKY/WX    TMP DP  RH WIND       PRES   REMARKS
HAVRE          MOCLDY    33  30  88 E7        29.86F
LEWISTOWN      MOCLDY    49  29  46 E7        29.88F
GREAT FALLS    MOCLDY    55  31  39 S16G24    29.81F
CUT BANK       CLOUDY    32  30  92 CALM      29.81F FOG
HELENA         MOCLDY    35  30  82 N3        29.92S
BUTTE          PTCLDY    30  26  85 SE3       29.94F
BOZEMAN        MOCLDY    31  28  89 S5        29.95F

WESTERN MONTANA


CITY           SKY/WX    TMP DP  RH WIND       PRES   REMARKS
MISSOULA       CLOUDY    34  34 100 N3        29.84F
KALISPELL      NOT AVBL

NORTH DAKOTA


CITY           SKY/WX    TMP DP  RH WIND       PRES   REMARKS
WILLISTON      CLOUDY    31  25  78 S13G22    30.27F
DICKINSON      CLOUDY    28  25  88 S22G31    30.30F
MINOT          MOSUNNY   24  18  77 SE15G23   30.42F
BISMARCK       MOSUNNY   23  20  88 SE9       30.52F

SOUTHERN SASKATCHEWAN


CITY           SKY/WX    TMP DP  RH WIND       PRES   REMARKS
REGINA         CLOUDY    27  25  93 SE24G32   30.16F
MOOSE JAW      MOCLDY    32  28  86 SE18      30.09F
ESTEVAN        CLOUDY    27  23  86 SE13G18   30.29F
SWIFT CURRENT  PTCLDY    34  30  86 S32G39    29.86F




USA.gov is the U.S. government's official web portal to all federal, state and local government web resources and services.